Ogallala, NE

9:33 PM MDT on September 30, 2016 (GMT -0600)
Searle

Weather History for KOGA - October, 2013

Change the Weather History Date:

Tuesday, October 1, 2013

  Actual Average Record
Temperature  
Mean Temperature 64 °F -  
Max Temperature 77 °F 76 °F 92 °F (1967)
Min Temperature 51 °F 40 °F 24 °F (1966)
Degree Days  
Heating Degree Days 1    
Growing Degree Days 14 (Base 50)    
Moisture  
Dew Point 35 °F    
Average Humidity 40    
Maximum Humidity 73    
Minimum Humidity 19    
Precipitation  
Precipitation 0.00 in - - ()
Sea Level Pressure  
Sea Level Pressure 29.98 in    
Wind  
Wind Speed 7 mph (East)    
Max Wind Speed 14 mph    
Max Gust Speed 20 mph    
Visibility 10 miles    
Events      
Averages and records for this station are not official NWS values.
T = Trace of Precipitation, MM = Missing Value Source: NWS Daily Summary

Daily Weather History Graph

Daily Weather History Graph

Search for Another Location

Airport or City:

Trip Planner

Search our weather history database for the weather conditions in past years. The results will help you decide how hot, cold, wet, or windy it might be!

Date:

Astronomy

Oct. 01, 2013 Rise Set
Actual Time 6:44 AM MDT 6:28 PM MDT
Civil Twilight 6:16 AM MDT 6:55 PM MDT
Nautical Twilight 5:44 AM MDT 7:27 PM MDT
Astronomical Twilight 5:12 AM MDT 8:00 PM MDT
Moon 3:18 AM MDT 4:34 PM MDT
Length of Visible Light 12h 39m
Length of Day
11h 44m
Waning Crescent, 11% of the Moon is Illuminated
Oct 1
Waning Crescent
Oct 4
New
Oct 11
First Quarter
Oct 18
Full
Oct 26
Last Quarter

Hourly Weather History & Observations

Time (MDT) Temp. Dew Point Humidity Pressure Visibility Wind Dir Wind Speed Gust Speed Precip Events Conditions
12:15 AM 55.6 °F 46.4 °F 71% 29.81 in 10.0 mi South 4.6 mph - N/A   Clear
12:35 AM 54.1 °F 45.7 °F 73% 29.81 in 10.0 mi Calm Calm - N/A   Clear
12:55 AM 57.2 °F 46.4 °F 67% 29.84 in 10.0 mi North 6.9 mph 18.4 mph N/A   Clear
1:15 AM 61.3 °F 46.8 °F 59% 29.86 in 10.0 mi NE 12.7 mph - N/A   Clear
1:35 AM 59.4 °F 47.3 °F 64% 29.88 in 10.0 mi NE 9.2 mph - N/A   Clear
1:55 AM 58.3 °F 46.6 °F 65% 29.89 in 10.0 mi NE 4.6 mph - N/A   Clear
2:15 AM 57.2 °F 45.5 °F 65% 29.89 in 10.0 mi NE 11.5 mph - N/A   Clear
2:35 AM 56.7 °F 42.6 °F 59% 29.91 in 10.0 mi NNE 9.2 mph - N/A   Clear
2:55 AM 56.3 °F 39.7 °F 54% 29.91 in 10.0 mi NNE 11.5 mph - N/A   Clear
3:15 AM 56.3 °F 37.9 °F 50% 29.92 in 10.0 mi NE 11.5 mph - N/A   Clear
3:35 AM 56.5 °F 36.0 °F 46% 29.93 in 10.0 mi NNE 12.7 mph - N/A   Clear
3:55 AM 56.3 °F 35.1 °F 45% 29.94 in 10.0 mi NNE 11.5 mph - N/A   Clear
4:15 AM 56.3 °F 33.4 °F 42% 29.94 in 10.0 mi NNE 12.7 mph - N/A   Clear
4:35 AM 56.5 °F 31.5 °F 39% 29.94 in 10.0 mi NNE 12.7 mph - N/A   Clear
4:55 AM 56.7 °F 29.5 °F 35% 29.95 in 10.0 mi NNE 9.2 mph 17.3 mph N/A   Clear
5:15 AM 55.9 °F 29.1 °F 36% 29.97 in 10.0 mi NE 8.1 mph - N/A   Clear
5:35 AM 54.7 °F 29.5 °F 38% 29.98 in 10.0 mi ENE 4.6 mph - N/A   Clear
5:55 AM 54.0 °F 30.2 °F 40% 29.99 in 10.0 mi ENE 5.8 mph - N/A   Clear
6:15 AM 54.1 °F 30.4 °F 40% 30.00 in 10.0 mi NE 6.9 mph - N/A   Clear
6:35 AM 52.9 °F 31.3 °F 44% 30.01 in 10.0 mi ENE 5.8 mph - N/A   Clear
6:55 AM 52.3 °F 32.0 °F 46% 30.02 in 10.0 mi ENE 4.6 mph - N/A   Clear
7:15 AM 51.8 °F 32.7 °F 48% 30.02 in 10.0 mi NE 3.5 mph - N/A   Clear
7:35 AM 51.1 °F 35.2 °F 55% 30.04 in 10.0 mi Calm Calm - N/A   Clear
7:55 AM 55.6 °F 34.3 °F 45% 30.05 in 10.0 mi North 3.5 mph - N/A   Clear
8:15 AM 58.5 °F 32.4 °F 37% 30.05 in 10.0 mi NE 8.1 mph - N/A   Clear
8:35 AM 60.3 °F 31.3 °F 34% 30.06 in 10.0 mi ENE 10.4 mph - N/A   Clear
8:55 AM 61.3 °F 31.1 °F 32% 30.06 in 10.0 mi ENE 9.2 mph - N/A   Clear
9:15 AM 62.4 °F 30.6 °F 30% 30.06 in 10.0 mi ENE 9.2 mph - N/A   Clear
9:35 AM 63.7 °F 30.6 °F 29% 30.07 in 10.0 mi East 10.4 mph - N/A   Clear
9:55 AM 65.1 °F 29.5 °F 26% 30.07 in 10.0 mi ENE 9.2 mph - N/A   Clear
10:15 AM 67.1 °F 27.7 °F 23% 30.07 in 10.0 mi East 13.8 mph - N/A   Clear
10:35 AM 67.6 °F 26.8 °F 22% 30.06 in 10.0 mi East 11.5 mph 19.6 mph N/A   Clear
10:55 AM 68.4 °F 28.0 °F 22% 30.05 in 10.0 mi East 12.7 mph - N/A   Clear
11:15 AM 69.4 °F 28.6 °F 22% 30.05 in 10.0 mi ESE 11.5 mph - N/A   Clear
11:35 AM 69.8 °F 28.8 °F 22% 30.05 in 10.0 mi ESE 11.5 mph 16.1 mph N/A   Clear
11:55 AM 70.9 °F 28.9 °F 21% 30.04 in 10.0 mi East 13.8 mph 17.3 mph N/A   Clear
12:15 PM 71.6 °F 28.8 °F 20% 30.04 in 10.0 mi East 11.5 mph - N/A   Clear
12:35 PM 72.7 °F 29.1 °F 20% 30.03 in 10.0 mi East 9.2 mph - N/A   Clear
12:55 PM 72.7 °F 29.1 °F 20% 30.03 in 10.0 mi East 8.1 mph - N/A   Clear
1:15 PM 73.0 °F 29.1 °F 20% 30.02 in 10.0 mi East 6.9 mph - N/A   Clear
1:35 PM 74.5 °F 30.6 °F 20% 30.01 in 10.0 mi East 11.5 mph - N/A   Clear
1:55 PM 74.8 °F 30.4 °F 20% 30.00 in 10.0 mi ESE 5.8 mph - N/A   Clear
2:15 PM 75.0 °F 30.7 °F 20% 30.00 in 10.0 mi SE 6.9 mph - N/A   Clear
2:35 PM 75.0 °F 31.3 °F 20% 29.99 in 10.0 mi Calm Calm - N/A   Clear
2:55 PM 75.2 °F 31.1 °F 20% 29.99 in 10.0 mi East 4.6 mph - N/A   Clear
3:15 PM 76.1 °F 31.8 °F 20% 29.98 in 10.0 mi ESE 6.9 mph - N/A   Clear
3:35 PM 77.0 °F 32.2 °F 19% 29.98 in 10.0 mi ESE 4.6 mph 9.2 mph N/A   Clear
3:55 PM 77.2 °F 32.5 °F 20% 29.97 in 10.0 mi SE 9.2 mph - N/A   Clear
4:15 PM 77.2 °F 32.4 °F 20% 29.97 in 10.0 mi SSE 4.6 mph - N/A   Clear
4:35 PM 77.5 °F 32.2 °F 19% 29.96 in 10.0 mi SE 6.9 mph - N/A   Clear
4:55 PM 77.2 °F 32.7 °F 20% 29.95 in 10.0 mi SE 8.1 mph - N/A   Clear
5:15 PM 76.6 °F 32.5 °F 20% 29.95 in 10.0 mi SE 8.1 mph - N/A   Clear
5:35 PM 75.7 °F 33.3 °F 21% 29.95 in 10.0 mi SE 9.2 mph - N/A   Clear
5:55 PM 74.3 °F 34.5 °F 23% 29.95 in 10.0 mi SE 6.9 mph - N/A   Clear
6:15 PM 71.6 °F 36.5 °F 28% 29.95 in 10.0 mi ESE 5.8 mph - N/A   Clear
6:35 PM 68.9 °F 37.0 °F 31% 29.95 in 10.0 mi ESE 4.6 mph - N/A   Clear
6:55 PM 66.7 °F 36.9 °F 33% 29.96 in 10.0 mi ESE 5.8 mph - N/A   Clear
7:15 PM 64.8 °F 37.9 °F 37% 29.96 in 10.0 mi Calm Calm - N/A   Clear
7:35 PM 61.7 °F 38.8 °F 43% 29.96 in 10.0 mi East 4.6 mph - N/A   Clear
7:55 PM 60.8 °F 39.6 °F 46% 29.96 in 10.0 mi ESE 4.6 mph - N/A   Clear
8:15 PM 59.7 °F 39.6 °F 47% 29.97 in 10.0 mi East 4.6 mph - N/A   Clear
8:35 PM 59.0 °F 40.1 °F 50% 29.97 in 10.0 mi East 5.8 mph - N/A   Clear
8:55 PM 57.6 °F 40.6 °F 53% 29.98 in 10.0 mi Calm Calm - N/A   Clear
9:15 PM 56.1 °F 40.5 °F 56% 29.98 in 10.0 mi East 3.5 mph - N/A   Clear
9:35 PM 54.1 °F 41.0 °F 61% 29.98 in 10.0 mi Calm Calm - N/A   Clear
9:55 PM 53.1 °F 41.0 °F 64% 29.98 in 10.0 mi Calm Calm - N/A   Clear
10:15 PM 53.1 °F 41.0 °F 64% 29.98 in 10.0 mi East 3.5 mph - N/A   Clear
10:35 PM 51.8 °F 41.0 °F 67% 29.98 in 10.0 mi Calm Calm - N/A   Clear
10:55 PM 51.8 °F 41.4 °F 68% 29.98 in 10.0 mi Calm Calm - N/A   Clear
11:15 PM 51.6 °F 41.4 °F 68% 29.98 in 10.0 mi Calm Calm - N/A   Clear
11:35 PM 51.8 °F 41.9 °F 69% 29.98 in 10.0 mi Calm Calm - N/A   Clear
11:55 PM 51.1 °F 41.7 °F 70% 29.97 in 3.0 mi Calm Calm - N/A   Haze